Regional Weather Roundup
Issued by NWS Green Bay, WI

Home | Current Version | Previous Version | Graphics & Text | Print | Product List | Glossary Off
Versions: 1 2 3 4 5 6 7 8 9 10 11 12 13 14 15 16 17 18 19 20 21 22 23 24 25 26 27 28 29 30 31 32 33 34 35 36 37 38 39 40 41 42 43 44 45 46 47 48 49 50

273
ASUS43 KGRB 030800
RWRGRB

NORTH-CENTRAL AND NORTHEAST WISCONSIN REGIONAL WEATHER ROUNDUP
NATIONAL WEATHER SERVICE GREEN BAY WI
200 AM CST SAT DEC 03 2016

WIZ005-009-010>012-018-019-030900-
NORTH CENTRAL WISCONSIN

CITY           SKY/WX    TMP DP  RH WIND       PRES   REMARKS
IRONWOOD       NOT AVBL
MANITOWISH WTR NOT AVBL
ARBOR VITAE    NOT AVBL
EAGLE RIVER    NOT AVBL
LAND O LAKES   NOT AVBL
RHINELANDER    CLOUDY    29  26  89 W5        30.24R
PHILLIPS       NOT AVBL
ANTIGO         NOT AVBL
TOMAHAWK       NOT AVBL
MERRILL        NOT AVBL
$$

WIZ013-073-030900-
NORTHEAST WISCONSIN

CITY           SKY/WX    TMP DP  RH WIND       PRES   REMARKS
IRON MOUNTAIN  LGT SNOW  31  27  85 W3        30.23R FOG
MARINETTE      NOT AVBL
$$

WIZ017-030-035>037-045-030900-
CENTRAL WISCONSIN

CITY           SKY/WX    TMP DP  RH WIND       PRES   REMARKS
MEDFORD        NOT AVBL
WAUSAU         CLOUDY    28  22  78 NW10      30.25S
MOSINEE        NOT AVBL
MARSHFIELD     CLOUDY    29  23  78 NW6       30.25F
WISC RAPIDS    CLOUDY    30  24  78 NW5       30.29S
STEVENS POINT  NOT AVBL
WAUPACA        NOT AVBL
SHAWANO        NOT AVBL
CLINTONVILLE   NOT AVBL
WAUTOMA        NOT AVBL
$$

WIZ038-039-048-051-030900-
FOX VALLEY

CITY           SKY/WX    TMP DP  RH WIND       PRES   REMARKS
NWS GREEN BAY  CLOUDY    35  29  78 W6        30.28
APPLETON       NOT AVBL
OSHKOSH        CLOUDY    31  23  72 W7        30.28S
FOND DU LAC    CLOUDY    31  21  66 W7        30.30R
$$

WIZ022-050-052-030900-
EAST CENTRAL WISCONSIN

CITY           SKY/WX    TMP DP  RH WIND       PRES   REMARKS
EPHRAIM        NOT AVBL
WASHINGTON ISL NOT AVBL
STURGEON BAY   NOT AVBL
MANITOWOC      NOT AVBL
SHEBOYGAN      CLOUDY    32  24  72 W8        30.29R
$$

LMZ563-521-522-541>543-030900-
LAKESHORE

STATION/POSITION TIME  TEMP    WIND        PRES    VSBY  WAVE
                       AIR SEA DIR/SP/G                  HT/PER
                 (UTC) (F)     (DEG/KT/KT) (MB)    (MI)  (FT/S)
SHEBOYGAN LKSHOR 0700   33     280/  9/ 11 1025.7F
KEWAUNEE LKSHORE 0730   34     280/  5/  9 1024.2S
ALGOMA MARINA    0751           CALM  /  3   N/A
NORTHPORT PIER   0740   37     290/  6/ 14 1024.0R
CHAMBERS ISLAND  0740   36     290/  6/  9 1024.0R
MENOMINEE LKSHOR 0730   35     270/  7/ 10 1023.7S
$$




USA.gov is the U.S. government's official web portal to all federal, state and local government web resources and services.